Date String (YYYY-MM-DD hh:mm:ss) UTC,Instrument flags,absolute air pressure of the measurement (hPa),sample flow rate (lpm),inlet stack bypass flow (lpm),air temperature of the measurement (°C),ambient temperature measured by the external sensor (°C),aerosol sample conditioner tube jacket temperature (°C),OPC LED temperature (°C),internal box temperature (°C),relative humidity of the measurement (%),span deviation,mass concentration of particles derived from Lorenz-Mie calculation of OPC scattering (μg/m³),mass concentration of particles derived from Lorenz-Mie calculation of OPC scattering (μg/m³),mass concentration of particles derived from Lorenz-Mie calculation of OPC scattering (μg/m³)
DateTimeUTC,F1_M11,P_M11,Q1_M11,Q2_M11,T1_M11,T2_M11,T3_M11,T4_M11,T5_M11,U1_M11,ZSPAN_M11,X2_M11,X0_M11,X1_M11
2024-01-04 19:00:00,SystemResetWarning,0823.8,5.00,000.00,018.8,018.2,000.0,027.1,020.0,19.4,0002.1,0009.02,0016.21,0008.48
2024-01-04 19:01:00,SystemResetWarning,0823.8,5.00,000.00,018.8,018.2,000.0,027.2,020.0,19.4,0002.1,0009.04,0015.55,0008.48
2024-01-04 19:02:00,SystemResetWarning,0823.7,5.00,000.00,018.8,018.1,000.0,027.2,020.0,19.4,0002.2,0009.07,0015.39,0008.51
2024-01-04 19:03:00,SystemResetWarning,0823.8,5.00,000.00,018.8,018.1,000.0,027.2,020.0,19.3,0002.0,0009.09,0015.44,0008.51
2024-01-04 19:04:00,SystemResetWarning,0823.8,5.02,000.00,018.8,018.1,000.0,027.2,020.0,19.2,0001.8,0009.10,0015.33,0008.52
2024-01-04 19:05:00,SystemResetWarning,0823.8,5.00,000.00,018.8,018.1,000.0,027.2,020.0,19.0,0001.7,0009.15,0015.37,0008.54
2024-01-04 19:06:00,SystemResetWarning,0823.8,5.00,000.00,018.8,018.1,000.0,027.2,020.0,19.1,0001.5,0009.19,0015.84,0008.54
2024-01-04 19:07:00,SystemResetWarning,0823.7,5.00,000.00,018.8,018.1,000.0,027.2,020.0,19.0,0001.3,0009.22,0015.78,0008.53
2024-01-04 19:08:00,SystemResetWarning,0823.7,4.99,000.00,018.8,018.1,000.0,027.2,020.0,19.0,0001.4,0009.24,0015.98,0008.53
2024-01-04 19:09:00,SystemResetWarning,0823.6,4.99,000.00,018.8,018.1,000.0,027.2,020.0,19.1,0001.2,0009.21,0015.63,0008.53
2024-01-04 19:10:00,SystemResetWarning,0823.7,5.00,000.00,018.8,018.1,000.0,027.2,020.0,18.9,0000.7,0009.20,0015.03,0008.53
2024-01-04 19:11:00,SystemResetWarning,0823.7,5.01,000.00,018.8,018.1,000.0,027.2,020.0,19.0,0000.0,0009.22,0014.87,0008.56
2024-01-04 19:12:00,SystemResetWarning,0823.6,5.00,000.00,018.8,018.1,000.0,027.2,020.0,18.9,-000.1,0009.23,0015.06,0008.56
2024-01-04 19:13:00,SystemResetWarning,0823.6,4.99,000.00,018.8,018.0,000.0,027.2,020.0,18.9,-000.5,0009.23,0015.49,0008.56
2024-01-04 19:14:00,SystemResetWarning,0823.6,5.00,000.00,018.8,018.0,000.0,027.2,020.0,18.8,-000.7,0009.22,0015.54,0008.56
2024-01-04 19:15:00,SystemResetWarning,0823.6,5.00,000.00,018.8,018.0,000.0,027.2,020.0,18.8,-000.6,0009.22,0015.53,0008.57
2024-01-04 19:16:00,SystemResetWarning,0823.6,5.00,000.00,018.8,018.0,000.0,027.2,020.0,18.8,-000.6,0009.21,0015.48,0008.57
2024-01-04 19:17:00,SystemResetWarning,0823.6,5.01,000.00,018.8,018.0,000.0,027.2,020.0,18.7,-000.3,0009.19,0015.62,0008.58
2024-01-04 19:18:00,SystemResetWarning,0823.6,5.01,000.00,018.8,018.0,000.0,027.2,020.0,18.7,-000.1,0009.21,0015.40,0008.59
2024-01-04 19:19:00,SystemResetWarning,0823.5,5.01,000.00,018.8,018.0,000.0,027.2,020.0,18.6,-000.4,0009.23,0015.01,0008.61
2024-01-04 19:20:00,SystemResetWarning,0823.5,5.00,000.00,018.8,018.0,000.0,027.2,020.0,18.5,-000.4,0009.26,0014.75,0008.62
2024-01-04 19:21:00,SystemResetWarning,0823.5,5.00,000.00,018.8,018.0,000.0,027.2,020.0,18.5,-000.2,0009.27,0014.63,0008.64
2024-01-04 19:22:00,SystemResetWarning,0823.5,5.00,000.00,018.8,018.0,000.0,027.2,020.0,18.6,0000.1,0009.25,0014.22,0008.63
2024-01-04 19:23:00,SystemResetWarning,0823.5,5.00,000.00,018.8,018.0,000.0,027.2,020.0,18.6,0000.2,0009.27,0014.13,0008.64
2024-01-04 19:24:00,SystemResetWarning,0823.5,5.00,000.00,018.8,018.0,000.0,027.2,020.0,18.6,0000.3,0009.25,0013.72,0008.64
2024-01-04 19:25:00,SystemResetWarning,0823.5,4.99,000.00,018.8,017.9,000.0,027.2,020.0,18.6,0000.6,0009.25,0013.70,0008.64
2024-01-04 19:26:00,SystemResetWarning,0823.5,5.00,000.00,018.8,017.9,000.0,027.2,020.0,18.5,0000.6,0009.23,0013.59,0008.64
2024-01-04 19:27:00,SystemResetWarning,0823.5,5.00,000.00,018.8,017.9,000.0,027.2,020.0,18.4,0000.9,0009.23,0013.59,0008.65
2024-01-04 19:28:00,SystemResetWarning,0823.4,5.01,000.00,018.8,017.9,000.0,027.2,020.0,18.4,0001.0,0009.25,0013.18,0008.66
2024-01-04 19:29:00,SystemResetWarning,0823.4,5.01,000.00,018.8,017.9,000.0,027.2,020.0,18.4,0001.0,0009.22,0012.73,0008.66
2024-01-04 19:30:00,SystemResetWarning,0823.4,5.01,000.00,018.8,017.9,000.0,027.2,020.0,18.4,0001.1,0009.19,0012.95,0008.66
2024-01-04 19:31:00,SystemResetWarning,0823.4,5.00,000.00,018.8,018.0,000.0,027.2,020.0,18.4,0001.4,0009.21,0012.99,0008.67
2024-01-04 19:32:00,SystemResetWarning,0823.4,4.99,000.00,018.8,018.0,000.0,027.2,020.0,18.3,0001.6,0009.21,0013.19,0008.67
2024-01-04 19:33:00,SystemResetWarning,0823.4,4.99,000.00,018.8,018.0,000.0,027.2,020.0,18.3,0001.6,0009.22,0013.83,0008.67
2024-01-04 19:34:00,SystemResetWarning,0823.4,5.00,000.00,018.8,018.0,000.0,027.2,020.0,18.3,0001.5,0009.20,0013.74,0008.68
2024-01-04 19:35:00,SystemResetWarning,0823.4,5.00,000.00,018.8,018.0,000.0,027.2,020.0,18.3,0001.4,0009.23,0013.84,0008.70
2024-01-04 19:36:00,SystemResetWarning,0823.4,5.01,000.00,018.8,018.0,000.0,027.2,020.0,18.3,0001.3,0009.24,0013.86,0008.72
2024-01-04 19:37:00,SystemResetWarning,0823.4,5.01,000.00,018.8,018.0,000.0,027.2,020.0,18.3,0001.4,0009.27,0013.97,0008.74
2024-01-04 19:38:00,SystemResetWarning,0823.4,5.00,000.00,018.8,018.0,000.0,027.2,020.0,18.2,0001.6,0009.28,0014.37,0008.75
2024-01-04 19:39:00,SystemResetWarning,0823.4,5.00,000.00,018.8,018.0,000.0,027.2,020.0,18.2,0001.3,0009.27,0014.68,0008.77
2024-01-04 19:40:00,SystemResetWarning,0823.4,5.00,000.00,018.8,018.0,000.0,027.2,020.0,18.2,0001.3,0009.29,0014.70,0008.79
2024-01-04 19:41:00,SystemResetWarning,0823.4,5.00,000.00,018.8,018.0,000.0,027.2,020.0,18.2,0001.3,0009.33,0014.53,0008.81
2024-01-04 19:42:00,SystemResetWarning,0823.4,4.99,000.00,018.8,018.0,000.0,027.2,020.0,18.2,0001.3,0009.32,0014.52,0008.81
2024-01-04 19:43:00,SystemResetWarning,0823.4,5.00,000.00,018.8,018.0,000.0,027.2,020.0,18.3,0001.5,0009.32,0014.36,0008.83
2024-01-04 19:44:00,SystemResetWarning,0823.4,4.99,000.00,018.8,018.0,000.0,027.2,020.0,18.2,0001.7,0009.36,0013.71,0008.84
2024-01-04 19:45:00,SystemResetWarning,0823.3,4.99,000.00,018.8,018.0,000.0,027.2,020.0,18.2,0001.7,0009.42,0014.00,0008.87
2024-01-04 19:46:00,SystemResetWarning,0823.3,5.00,000.00,018.8,018.0,000.0,027.2,020.0,18.2,0001.6,0009.46,0014.02,0008.90
2024-01-04 19:47:00,SystemResetWarning,0823.3,5.00,000.00,018.8,018.0,000.0,027.2,020.0,18.2,0001.5,0009.49,0014.22,0008.91
2024-01-04 19:48:00,SystemResetWarning,0823.3,5.00,000.00,018.8,018.0,000.0,027.2,020.0,18.2,0001.4,0009.52,0014.67,0008.92
2024-01-04 19:49:00,SystemResetWarning,0823.3,5.01,000.00,018.8,018.0,000.0,027.2,020.0,18.1,0000.9,0009.52,0014.36,0008.94
2024-01-04 19:50:00,SystemResetWarning,0823.3,5.01,000.00,018.8,018.0,000.0,027.2,020.0,18.1,0000.6,0009.52,0013.93,0008.95
2024-01-04 19:51:00,SystemResetWarning,0823.3,5.00,000.00,018.8,018.0,000.0,027.2,020.0,18.1,0000.6,0009.56,0014.63,0008.95
2024-01-04 19:52:00,SystemResetWarning,0823.3,4.99,000.00,018.8,018.0,000.0,027.2,020.0,18.0,0000.8,0009.55,0014.87,0008.97
2024-01-04 19:53:00,SystemResetWarning,0823.3,5.00,000.00,018.8,018.0,000.0,027.2,020.0,18.0,0000.5,0009.56,0015.05,0008.98
2024-01-04 19:54:00,SystemResetWarning,0823.2,5.00,000.00,018.8,018.0,000.0,027.2,020.0,17.9,0000.1,0009.61,0015.12,0009.00
2024-01-04 19:55:00,SystemResetWarning,0823.3,5.00,000.00,018.8,018.0,000.0,027.2,020.0,17.9,0000.2,0009.63,0015.17,0009.01
2024-01-04 19:56:00,SystemResetWarning,0823.3,5.00,000.00,018.8,018.0,000.0,027.2,020.0,17.9,0000.1,0009.61,0014.97,0008.99
2024-01-04 19:57:00,SystemResetWarning,0823.2,5.00,000.00,018.8,018.0,000.0,027.2,020.0,17.9,0000.1,0009.62,0014.97,0008.98
2024-01-04 19:58:00,SystemResetWarning,0823.3,5.00,000.00,018.8,017.9,000.0,027.2,020.0,17.9,0000.4,0009.62,0014.81,0008.99
2024-01-04 19:59:00,SystemResetWarning,0823.3,5.00,000.00,018.8,017.9,000.0,027.2,020.0,17.9,0000.1,0009.66,0014.73,0009.01
